{"data":{"norad_id":59194,"intl_designator":"2024-045S","name":"STARLINK-31542","alt_names":[],"object_type":"PAYLOAD","status":"ACTIVE","operator":null,"country":"US","launch_date":"2024-03-10","launch_site_code":"AFETR","launch_vehicle":null,"mission":null,"orbit_class":"UNKNOWN","rcs_meters":null,"size_class":null,"mass_kg":null,"dimensions":null,"purposes":["comms"],"wikipedia_slug":null,"has_3d_model":false,"image_url":null,"decayed_at":null,"tle_current":{"epoch":"2026-09-20T22:03:06.189696Z","epoch_age_seconds":122697,"freshness":"FRESH","line1":"1 59194U 24045S   26263.91882164 -.00001187  00000+0 -33567-4 0  9997","line2":"2 59194  43.0084  69.6013 0003765 249.1242 110.9207 15.27576816143027","mean_motion":15.27576816,"eccentricity":0.0003765,"inclination_deg":43.0084,"raan_deg":69.6013,"arg_perigee_deg":249.1242,"mean_anomaly_deg":110.9207,"bstar":-3.3567e-5,"rev_number":14302,"period_min":94.266945198257,"perigee_km":480.47538994292,"apogee_km":485.64187025238,"semimajor_km":6861.1956300977,"source":"CELESTRAK","updated_at":"2026-09-21T09:00:34.065486Z"}}}